Regional Weather Roundup
Issued by NWS

Home | Current Version | Previous Version | Text Only | Print | Product List | Glossary Off
Versions: 1 2 3 4 5 6 7 8 9 10 11 12 13 14 15 16 17 18 19 20 21 22 23 24 25 26 27 28 29 30 31 32 33 34 35 36 37 38 39 40 41 42 43 44 45 46 47 48 49 50

000
ASUS43 KLOT 222108
RWRIL

ILLINOIS REGIONAL WEATHER ROUNDUP
NATIONAL WEATHER SERVICE CHICAGO/ROMEOVILLE IL
300 PM CST MON JAN 22 2018

NOTE: "FAIR" INDICATES FEW OR NO CLOUDS BELOW 12,000 FEET WITH NO
SIGNIFICANT WEATHER AND/OR OBSTRUCTIONS TO VISIBILITY.

* THESE STATIONS ARE NOT UNDER NWS QUALITY CONTROL. THEY ALSO MAY NOT
  REPORT WEATHER SUCH AS PRECIPITATION OR FOG.

ILZ001-002-007-009-015-016-024-222200-
NORTHWEST ILLINOIS

CITY           SKY/WX    TMP DP  RH WIND       PRES   REMARKS
MOLINE         FAIR      53  35  50 SW16G24   29.40R
STERLING*        N/A     56  47  71 W12       29.39F
SAVANNA*       CLOUDY    51  43  74 W13       29.40R
$$

ILZ003-004-008-010-011-017-018-222200-
NORTH CENTRAL ILLINOIS

CITY           SKY/WX    TMP DP  RH WIND       PRES   REMARKS
ROCKFORD       PTSUNNY   53  49  86 S10       29.42S
FREEPORT*      FOG       45  45 100 NE7       29.41F VSB 1/4
ROCHELLE*      FAIR      54  49  82 S14       29.41F
DE KALB*       PTSUNNY   52  51  97 S10       29.43F
PERU*          CLOUDY    55  45  69 S15       29.40F
$$

ILZ005-006-012>014-019>023-222200-
NORTHEAST ILLINOIS

CITY           SKY/WX    TMP DP  RH WIND       PRES   REMARKS
CHICAGO-OHARE  PTSUNNY   53  48  83 S14       29.44S
CHICAGO-MIDWAY PTSUNNY   55  50  83 S16G23    29.45F
AURORA         PTSUNNY   55  49  80 S14       29.43S
LANSING*       CLOUDY    52  50  92 S16G22    29.48F
JOLIET*        CLOUDY    56  50  80 S13G21    29.44S
WAUKEGAN       CLOUDY    52  50  93 S13       29.44R
DUPAGE AIRPORT PTSUNNY   54  51  90 S14       29.43S
KANKAKEE*      CLOUDY   N/A N/A N/A S16       29.48F
WHEELING       CLOUDY    54  49  83 S14G26    29.46R
MORRIS*        PTSUNNY   56  50  81 S18       29.42F
ROMEOVILLE*    CLOUDY    53  49  87 S15       29.45S
NORTHERLY ISL    N/A     53  47  79 S22         N/A
$$

LMZ740>746-222200-
SOUTHERN LAKE MICHIGAN

STATION/POSITION SKY/WX   TEMP    WIND        PRES    VSBY  WAVE
                          AIR SEA DIR/SP/G                  HT/PER
                          (F)     (DEG/KT/KT) (MB)    (MI)  (FT/S)
HARRISON CRIB              50     190/ 22/ 25   N/A
BURNHAM HARBOR             53     200/ 18/ 21   N/A
CALUMET HARBOR             52     180/ 12/ 22  997.3F
BURNS HARBOR               52     180/ 14/ 25  999.3F
MICHIGAN CITY              51     180/ 18/ 21   N/A
$$

ILZ025>027-034>036-040-047-049-050-058-095>099-222200-
WEST-CENTRAL ILLINOIS

CITY           SKY/WX    TMP DP  RH WIND       PRES   REMARKS
QUINCY         CLOUDY    43  29  57 SW22G33   29.47R
GALESBURG*     PTSUNNY   48  38  66 SW23G30   29.44R
MACOMB*        CLOUDY    45  35  67 W24       29.46R
JACKSONVILLE*  MOSUNNY   51  35  55 W21G32    29.45R
PITTSFIELD*    CLOUDY    47  30  51 SW22G31   29.49R
$$

ILZ028>032-037-038-041>044-048-051>054-059>061-222200-
CENTRAL ILLINOIS

CITY           SKY/WX    TMP DP  RH WIND       PRES   REMARKS
PONTIAC        FAIR      56  53  89 S21       29.43F
BLOOMINGTON    PTSUNNY   55  44  66 S31G38    29.41F
DECATUR        FAIR      58  44  60 S23G35    29.44F
PEORIA         LGT RAIN  49  43  80 S10       29.41R
LACON*         CLOUDY    55  44  66 S8G16     29.39F THUNDER
LINCOLN*       PTSUNNY   59  43  55 S24G38    29.40S THUNDER
SPRINGFIELD    PTSUNNY   53  43  68 W28G37    29.42R
TAYLORVILLE    FAIR      57  42  56 S18G31    29.44S
$$

ILZ033-039-045-046-055>057-062-063-222200-
EAST-CENTRAL ILLINOIS

CITY           SKY/WX    TMP DP  RH WIND       PRES   REMARKS
CHAMPAIGN      PTSUNNY   55  50  83 S22G31    29.46F
DANVILLE*      CLOUDY    53  48  84 S21G31    29.47F
RANTOUL*       CLOUDY    55  51  85 S22G28    29.46F
MATTOON        FAIR      55  47  74 S15G28    29.47F
PARIS*         FAIR      55  49  83 S23G31    29.51F
$$

ILZ079-100>102-222200-
SOUTHWEST ILLINOIS

CITY           SKY/WX    TMP DP  RH WIND       PRES   REMARKS
ALTON          PTSUNNY   55  32  41 S22G33    29.46R
BELLEVILLE     PTSUNNY   59  28  31 SW22G32   29.46R
CAHOKIA*       MOSUNNY   57  27  31 SW18G30   29.47R
SPARTA*        CLOUDY    58  32  38 S22G30    29.51F
$$

ILZ064>066-069>071-074>076-080>082-084>086-088>090-092>094-222200-
SOUTH-CENTRAL ILLINOIS

CITY           SKY/WX    TMP DP  RH WIND       PRES   REMARKS
CARBONDALE     FAIR      58  39  49 S33G45    29.53F
CAIRO*         FAIR      58  44  59 SW22G30   29.60F
EFFINGHAM*     FAIR      59  44  57 S18G29    29.50F
MARION         MOSUNNY   57  37  47 S21G31    29.54F
MT. VERNON     FAIR      59  39  47 S24G36    29.50F
CENTRALIA*     SUNNY     59  41  50 S18G29    29.49F
SALEM*         FAIR      60  40  47 S20       29.49F
METROPOLIS*    FAIR      61  40  44 S21G30    29.60S
$$

ILZ067-068-072-073-078-083-087-091-222200-
SOUTHEAST ILLINOIS

CITY           SKY/WX    TMP DP  RH WIND       PRES   REMARKS
LAWRENCEVILLE  FAIR      57  51  80 S23G29    29.55F
FLORA*         FAIR      60  43  53 S24G31    29.51F
FAIRFIELD*     FAIR      60  45  58 S10       29.52F
HARRISBURG*    FAIR      61  43  51 SW25G33   29.56F
ROBINSON*      CLOUDY    56  50  79 S16G25    29.54F
CARMI*         FAIR      60  48  64 S21       29.55F
$$

ABBREVIATIONS USED IN REMARKS
   TC - TEMPERATURE IN CELSIUS
  WCI - WIND CHILL INDEX
   HX - HEAT INDEX
  VSB - VISIBILITY
$$





USA.gov is the U.S. government's official web portal to all federal, state and local government web resources and services.